Simultaneous Nadir Overpasses (SNOs) Predictions

Prediction of SNOs between GOES-15 and NPP Satellite Orbit:

Table of predicted SNOs for the next 14.0 days since TLE Epoch: 7/22/2016
Index Date Time (GOES-15) GOES-15 Lat,Lon NPP Lat,Lon Distance(km) Time Diff (sec)
1 07/23/2016 10:31:34 -0.20,-135.21 0.13,-136.74 174.94 80
2 07/24/2016 10:15:29 -0.19,-135.18 -0.85,-132.21 338.66 80
3 07/25/2016 22:34:45 0.21,-135.13 -0.30,-137.52 270.97 80
4 07/26/2016 22:18:40 0.20,-135.10 0.69,-132.98 242.27 80
5 07/28/2016 10:37:47 -0.22,-135.05 0.47,-138.25 364.61 80
6 07/29/2016 10:21:41 -0.22,-135.01 -0.52,-133.71 148.07 80
7 07/30/2016 22:40:57 0.24,-134.95 -0.69,-139.01 462.98 80
8 07/31/2016 22:24:51 0.23,-134.91 0.30,-134.47 49.59 80
9 08/03/2016 10:25:13
